ASTERIA (43020 NORAD) Tracking and Keplerian Element Data

This shows tracking and keplerian element data for the satellite.

Feedback or suggestion? Click here.




ElementValue
Catalog43020
NameASTERIA
Epoch Orbit7537
Epoch Day77.42759467
Epoch Year2019
RAAN69.7314
Inclination51.6416
Eccentricity0.0002916
Argument of Perigee109.1197
Mean Anonmoly251.0115
Mean Motion15.66735462
Decay Rate0.0001957
L11 43020U 98067NH 19077.42759467 .00019570 00000-0 18700-3 0 9998
L22 43020 51.6416 69.7314 0002916 109.1197 251.0115 15.66735462 75372

Live tracking and technical data element details for ASTERIA (NORAD 43020). ASTERIA can be tracked NOW for your location showing map with azimuth and elevation plus other details from your city location.

Track the satellite on the map from your city or location and see movement details for azimuth, elevation, latitude, longitude, range, height, and movement on the map or in text.







IsCatalogInMostPopularTable: catalog: 43020, numindb: 228
Update: records affected: 1



GetName: 43020 ASTERIA

Hit Count: updated at: Wed, 20 Mar 2019 05:21:13 GMT